Simultaneous Nadir Overpasses (SNOs) Predictions

Prediction of SNOs between AQUA and GOES-15 Satellite Orbit:

Table of predicted SNOs for the next 14.0 days since TLE Epoch: 9/7/2013
Index Date Time (AQUA) AQUA Lat,Lon GOES-15 Lat,Lon Distance(km) Time Diff (sec)
1 09/07/2013 10:37:55 0.42,-135.53 0.40,-135.47 6.14 80
2 09/09/2013 10:25:46 -0.22,-132.58 0.40,-135.49 330.64 80
3 09/09/2013 22:47:10 -0.88,-137.78 -0.38,-135.44 265.65 80
4 09/11/2013 22:35:01 -0.22,-134.84 -0.38,-135.45 70.04 80
5 09/13/2013 22:22:51 0.39,-131.88 -0.38,-135.44 404.97 80
6 09/14/2013 10:44:07 0.70,-137.04 0.36,-135.50 176.16 80
7 09/16/2013 10:31:57 0.07,-134.09 0.36,-135.49 158.33 80
8 09/16/2013 22:53:22 -1.15,-139.29 -0.34,-135.43 439.44 80
9 09/18/2013 10:19:47 -0.57,-131.15 0.36,-135.48 492.78 80
10 09/18/2013 22:41:11 -0.56,-136.33 -0.34,-135.42 104.88 80
11 09/20/2013 22:29:01 0.11,-133.39 -0.34,-135.40 229.48 80




NCC Satellite Simultaneous Nadir Overpasses (SNOs) Prediction Service
